Regional Weather Roundup
Issued by NWS

Home | Current Version | Previous Version | Text Only | Print | Product List | Glossary On
Versions: 1 2 3 4 5 6 7 8 9 10 11 12 13 14 15 16 17 18 19 20 21 22 23 24 25 26 27 28 29 30 31 32 33 34 35 36 37 38 39 40 41 42 43 44 45 46 47 48 49 50
453
ASUS43 KMPX 300010
RWRMN
WEATHER ROUNDUP FOR MINNESOTA
NATIONAL WEATHER SERVICE TWIN CITIES/CHANHASSEN MN
700 PM CDT THU SEP 29 2016


NOTE: "FAIR" INDICATES FEW OR NO CLOUDS BELOW 12,000 FEET WITH NO
SIGNIFICANT WEATHER AND/OR OBSTRUCTIONS TO VISIBILITY. N/A MEANS
CURRENT SKY AND/OR WEATHER CONDITIONS ARE NOT AVAILABLE.

MNZ060>063-068>070-300100-
   Twin Cities Metro

CITY           SKY/WX    TMP DP  RH WIND       PRES   REMARKS
TWIN CITIES    CLEAR     64  50  60 VRB6      30.40R
6HR MIN TEMP:  63; 6HR MAX TEMP:  68;

ST PAUL        CLEAR     63  51  65 N5        30.40S
CRYSTAL        CLEAR     62  49  62 NE3       30.39S
BLAINE         CLEAR     63  52  67 NE3       30.40S
LAKEVILLE      CLEAR     61  52  72 N3        30.39S
EDEN PRAIRIE   CLEAR     63  50  62 NE3       30.38F
6HR MIN TEMP:  63; 6HR MAX TEMP:  68;

LAKEVILLE      CLEAR     61  52  72 N3        30.39S
SOUTH ST PAUL  CLEAR     64  50  61 N3        30.39S
LAKE ELMO      FAIR      63  54  72 CALM      30.40S
$$
MNZ001>005-007-008-013>017-022>024-027-028-300100-
   Northwest Minnesota

CITY           SKY/WX    TMP DP  RH WIND       PRES   REMARKS
BEMIDJI        CLOUDY    56  46  68 SE5       30.44S
HALLOCK        CLEAR     61  50  67 SE5       30.38S
ROSEAU         HAZE      59  50  72 SE5       30.41F VSB 1/4
WARROAD        CLEAR     57  50  77 SE7       30.43S
THIEF RVR FALL CLEAR     58  46  64 SE8       30.41S
CROOKSTON      CLEAR     61  46  59 S6        30.39F
FOSSTON        CLEAR     57  45  62 E6        30.42S
DETROIT LAKES  CLEAR     57  45  62 SE7       30.42S
MOORHEAD       CLEAR     61  46  59 SE6       30.39S
PARK RAPIDS    CLOUDY    58  43  57 E5        30.42F
MAHNOMEN       FAIR      58  45  62 SE8       30.41S
$$
MNZ006-009>011-018-025>026-300100-
   North Central Minnesota

CITY           SKY/WX    TMP DP  RH WIND       PRES   REMARKS
BAUDETTE       CLOUDY    57  47  69 SE7       30.45S
FLAG ISLAND    CLEAR     57  46  67 SE5       30.42F
INTL FALLS     CLOUDY    55  49  80 SE3       30.47S
6HR MIN TEMP:  55; 6HR MAX TEMP:  58;

WASKISH        CLOUDY    55  48  76 CALM      30.45S
BIG FORK       CLOUDY    55  46  71 CALM      30.46S
GRAND RAPIDS   CLOUDY    55  49  80 CALM      30.46F
CRANE LAKE     CLOUDY    52  50  93 CALM      30.50S
ORR            CLOUDY    52  46  82 CALM      30.45F
COOK           CLOUDY    54  48  82 CALM      30.48S
WALKER         CLOUDY    55  48  78 CALM      30.43F
$$
MNZ012-019>021-037-300100-
   Northeast Minnesota

CITY           SKY/WX    TMP DP  RH WIND       PRES   REMARKS
DULUTH         PTCLDY    53  47  79 E6        30.46F
6HR MIN TEMP:  53; 6HR MAX TEMP:  62;

ELY            CLOUDY    54  46  76 NE3       30.47F
HIBBING        CLOUDY    55  47  74 NE3       30.46S
EVELETH        CLOUDY    56  49  76 CALM      30.47F
DULUTH HARBOR  CLEAR     55  52  88 NE13      30.47F
TWO HARBORS    CLEAR     55  50  82 NE6       30.45F
SILVER BAY     CLEAR     52  50  93 CALM      30.46F
GRAND MARAIS     N/A     54  52  93 CALM      30.49S
G MARAIS ARPRT CLEAR     48  45  87 CALM      30.50S
$$
MNZ029>031-032-039>041-046>048-054>057-064-300100-
   West Central Minnesota

CITY           SKY/WX    TMP DP  RH WIND       PRES   REMARKS
FERGUS FALLS   CLEAR     61  46  59 E6        30.41F
MORRIS         CLEAR     59  46  63 E8        30.38F
ALEXANDRIA     CLEAR     58  47  66 E6        30.42S
ELBOW LAKE     FAIR      58  47  66 SE7       30.40S
WADENA         PTCLDY    55  46  71 E3        30.42S
GLENWOOD       CLEAR     57  48  72 E5        30.41F
APPLETON       CLEAR     61  46  59 E7        30.37F
BENSON         CLEAR     61  46  59 CALM      30.39F
ORTONVILLE     CLEAR     61  48  63 CALM      30.37F
MADISON        CLEAR     64  48  55 SE3       30.37S
WILLMAR        FAIR      61  50  67 E3        30.41S
$$
MNZ033>034-036-042>043-049>051-058-059-300100-
   Central Minnesota

CITY           SKY/WX    TMP DP  RH WIND       PRES   REMARKS
ST CLOUD       CLEAR     60  51  72 CALM      30.40F
6HR MIN TEMP:  60; 6HR MAX TEMP:  66;

SAUK CENTRE    FAIR      58  47  67 E3        30.41S
PAYNESVILLE    CLEAR     60  48  63 CALM      30.41S
AITKIN         CLEAR     55  46  71 CALM      30.42F
PINE RIVER     MOCLDY    55  48  76 CALM      30.45F
BRAINERD       CLEAR     56  48  74 NE3       30.43F
STAPLES        CLEAR     55  46  71 CALM      30.42F
LONG PRAIRIE   FAIR      55  46  71 NE3       30.42S
LITTLE FALLS   CLEAR     57  46  67 CALM      30.42S
LITCHFIELD     CLEAR     61  52  72 E5        30.40F
BUFFALO        CLEAR     61  49  65 CALM      30.41S
MAPLE LAKE     CLEAR     59  52  77 NE3       30.40F
HUTCHINSON     CLEAR     62  51  67 NE3       30.40F
$$
MNZ037-044-045-052-053-300100-
   East Central Minnesota

CITY           SKY/WX    TMP DP  RH WIND       PRES   REMARKS
PRINCETON        N/A     61  52  72 CALM      30.41S
MORA           CLEAR     55  46  71 CALM      30.43F
CAMBRIDGE      CLEAR     61  48  63 CALM      30.39F
MOOSE LAKE     CLEAR     54  46  76 NE3       30.43S
HINCKLEY       FAIR      59  52  77 NE6       30.42F
CLOQUET        CLEAR     54  45  71 E6        30.45F
MCGREGOR       CLEAR     55  46  71 E5        30.44F
$$
MNZ071>073-080-081-089-090-097-098-300100-
   Southwest Minnesota

CITY           SKY/WX    TMP DP  RH WIND       PRES   REMARKS
MONTEVIDEO     CLEAR     61  48  63 SE6       30.40S
GRANITE FALLS  CLEAR     64  50  60 NE7       30.39F
CANBY          CLEAR     62  48  60 CALM      30.38F
MARSHALL       CLEAR     63  49  60 E5        30.38F
REDWOOD FALLS  CLEAR     63  47  55 E5        30.38F
OLIVIA         CLEAR     61  46  59 CALM      30.38F
PIPESTONE      CLEAR     64  46  52 E5        30.36F
WINDOM         CLEAR     63  46  55 NE5       30.38S
WORTHINGTON    CLEAR     61  48  62 NE7       30.38S
JACKSON        CLEAR     61  46  59 NE5       30.38S
TRACY          CLEAR     62  50  65 E3        30.38F
SLAYTON        CLEAR     61  48  63 E6        30.38F
$$
MNZ065>067-074>077-082>085-091>093-300100-
   South Central Minnesota

CITY           SKY/WX    TMP DP  RH WIND       PRES   REMARKS
MANKATO        CLEAR     62  50  64 NE6       30.39S
NEW ULM        CLEAR     63  46  55 E3        30.38S
ST JAMES       CLEAR     63  48  59 CALM      30.39S
FAIRMONT       CLEAR     62  48  60 NE6       30.38S
GLENCOE        CLEAR     61  53  74 CALM      30.39S
FARIBAULT      CLEAR     61  50  67 N3        30.39S
OWATONNA       CLEAR     63  48  59 N5        30.38S
WASECA         CLEAR     59  46  63 N6        30.39S
ALBERT LEA     CLEAR     63  48  59 N5        30.37S
$$
MNZ078>079-086>088-094>096-300100-
   Southeast Minnesota

CITY           SKY/WX    TMP DP  RH WIND       PRES   REMARKS
ROCHESTER      CLEAR     61  50  67 N8        30.38S
6HR MIN TEMP:  61; 6HR MAX TEMP:  70;

RED WING       CLEAR     64  50  59 NE3       30.36S
STANTON        CLEAR     61  51  70 N6        30.37S
DODGE CENTER   CLEAR     63  48  59 N6        30.38S
WINONA         CLEAR     61  52  72 NW3       30.36S
AUSTIN         CLEAR     61  48  63 N3        30.36S
PRESTON        CLEAR     60  50  70 N6        30.36S
$$
ABBREVIATIONS USED IN REMARKS
   TC - TEMPERATURES IN CELSIUS
  WCI - WIND CHILL INDEX
   HX - HEAT INDEX
  VSB - VISIBILITY
$$




USA.gov is the U.S. government's official web portal to all federal, state and local government web resources and services.